Weather History for KEUF - September, 2012

Change the Weather History Date:

Friday, September 28, 2012

  Actual Average (KLSF) Record (KLSF)
Temperature  
Mean Temperature 78 °F -  
Max Temperature 91 °F 80 °F 90 °F (2012)
Min Temperature 66 °F 58 °F 44 °F (2001)
Cooling Degree Days 14    
Growing Degree Days 28 (Base 50)    
Moisture  
Dew Point 69 °F    
Average Humidity 75    
Maximum Humidity 97    
Minimum Humidity 42    
Precipitation  
Precipitation 0.09 in - - ()
Sea Level Pressure  
Sea Level Pressure 30.05 in    
Wind  
Wind Speed 1 mph (SE)    
Max Wind Speed 7 mph    
Max Gust Speed -    
Visibility 10 miles    
Events      
Averages and records for this station are not official NWS values.
T = Trace of Precipitation, MM = Missing Value Source: NWS Daily Summary

Daily Weather History Graph

Daily Weather History Graph

Search for Another Location

Airport or City:

Trip Planner

Search our weather history database for the weather conditions in past years. The results will help you decide how hot, cold, wet, or windy it might be!

Date:

Astronomy

Sep. 28, 2012 Rise Set
Actual Time 6:32 AM CDT 6:28 PM CDT
Civil Twilight 6:08 AM CDT 6:52 PM CDT
Nautical Twilight 5:40 AM CDT 7:21 PM CDT
Astronomical Twilight 5:11 AM CDT 7:49 PM CDT
Moon 5:29 PM CDT (9/28) 5:05 AM CDT (9/28)
Length of Visible Light 12h 44m
Length of Day
11h 55m
Waxing Gibbous, 98% of the Moon is Illuminated
Sep 28
Waxing Gibbous
Sep 29
Full
Oct 8
Last Quarter
Oct 15
New
Oct 21
First Quarter

Hourly Weather History & Observations

Time (CDT) Temp. Heat Index Dew Point Humidity Pressure Visibility Wind Dir Wind Speed Gust Speed Precip Events Conditions
12:58 AM 72.0 °F - 68.0 °F 87% 30.09 in 10.0 mi Calm Calm - N/A   Clear
1:58 AM 72.0 °F - 68.0 °F 87% 30.08 in 10.0 mi Calm Calm - N/A   Clear
2:58 AM 69.1 °F - 66.9 °F 93% 30.06 in 10.0 mi Calm Calm - N/A   Clear
3:58 AM 68.0 °F - 66.9 °F 96% 30.06 in 10.0 mi Calm Calm - N/A   Clear
4:58 AM 66.9 °F - 66.0 °F 97% 30.06 in 10.0 mi Calm Calm - N/A   Clear
5:58 AM 68.0 °F - 66.0 °F 93% 30.07 in 10.0 mi Calm Calm - N/A   Clear
6:58 AM 66.9 °F - 64.9 °F 93% 30.08 in 10.0 mi Calm Calm - N/A   Clear
7:58 AM 73.9 °F - 70.0 °F 87% 30.10 in 10.0 mi Calm Calm - 0.00 in   Clear
8:29 AM 75.2 °F - 71.6 °F 89% 30.11 in 10.0 mi SE 3.5 mph - N/A   Partly Cloudy
8:58 AM 75.9 °F - 71.1 °F 85% 30.11 in 10.0 mi South 4.6 mph - N/A   Partly Cloudy
9:58 AM 82.0 °F 86.7 °F 72.0 °F 71% 30.11 in 10.0 mi SSE 4.6 mph - N/A   Clear
10:58 AM 84.9 °F 90.1 °F 71.1 °F 63% 30.10 in 10.0 mi Variable 3.5 mph - N/A   Partly Cloudy
11:43 AM 87.8 °F 93.8 °F 71.6 °F 58% 30.09 in 10.0 mi Calm Calm - N/A   Mostly Cloudy
11:58 AM 87.1 °F 92.8 °F 71.1 °F 59% 30.07 in 10.0 mi Calm Calm - N/A   Mostly Cloudy
12:07 PM 87.8 °F 93.8 °F 71.6 °F 58% 30.08 in 10.0 mi East 5.8 mph - N/A   Mostly Cloudy
12:58 PM 90.0 °F 92.8 °F 66.9 °F 46% 30.05 in 10.0 mi Calm Calm - N/A   Scattered Clouds
1:58 PM 90.0 °F 92.4 °F 66.0 °F 45% 30.01 in 10.0 mi Calm Calm - N/A   Partly Cloudy
2:58 PM 91.0 °F 94.3 °F 66.9 °F 45% 29.99 in 10.0 mi ESE 6.9 mph - N/A   Clear
3:58 PM 90.0 °F 91.3 °F 64.0 °F 42% 29.97 in 10.0 mi Calm Calm - N/A   Clear
4:58 PM 88.0 °F 92.1 °F 69.1 °F 53% 29.96 in 10.0 mi Calm Calm - N/A   Clear
5:58 PM 84.0 °F 88.4 °F 70.0 °F 63% 29.98 in 10.0 mi ESE 3.5 mph - N/A   Mostly Cloudy
6:58 PM 80.1 °F 82.9 °F 69.1 °F 69% 29.99 in 10.0 mi Calm Calm - N/A   Partly Cloudy
7:58 PM 75.0 °F - 71.1 °F 87% 30.01 in 10.0 mi Calm Calm - 0.09 in   Overcast
8:58 PM 73.9 °F - 71.1 °F 91% 30.01 in 10.0 mi NNW 4.6 mph - N/A   Mostly Cloudy
9:58 PM 72.0 °F - 70.0 °F 93% 30.01 in 10.0 mi Calm Calm - N/A   Mostly Cloudy
10:58 PM 71.1 °F - 69.1 °F 93% 30.01 in 8.0 mi Calm Calm - N/A   Mostly Cloudy
11:58 PM 71.1 °F - 69.1 °F 93% 30.01 in 10.0 mi Calm Calm - N/A   Scattered Clouds